| time (UTC) | temp F | wind direction | speed knots | gust knots | rain 1hr in | rain 24hr in | rain mn in | humidity % | barometer mb |
| 20260507154627 | 74 | 35 | 9.6 | 13.0 | 0.00 | 0.00 | 0.00 | 51 | 1012.2 |
| 20260507151627 | 76 | 41 | 8.7 | 13.0 | 0.00 | 0.00 | 0.00 | 50 | 1012.2 |
| 20260507144626 | 78 | 31 | 9.6 | 13.9 | 0.00 | 0.00 | 0.00 | 45 | 1012.6 |
| 20260507141627 | 79 | 37 | 11.3 | 13.9 | 0.00 | 0.00 | 0.00 | 41 | 1012.5 |
| 20260507134626 | 80 | 0 | 7.8 | 11.3 | 0.00 | 0.00 | 0.00 | 38 | 1012.4 |
| 20260507131626 | 81 | 23 | 5.2 | 10.4 | 0.00 | 0.00 | 0.00 | 39 | 1012.1 |
| 20260507124623 | 82 | 252 | 1.7 | 4.3 | 0.00 | 0.00 | 0.00 | 34 | 1012.5 |
| 20260507121624 | 80 | 49 | 2.6 | 5.2 | 0.00 | 0.00 | 0.00 | 38 | 1012.5 |
| 20260507114623 | 80 | 48 | 1.7 | 5.2 | 0.00 | 0.00 | 0.00 | 37 | 1012.9 |
| 20260507111622 | 80 | 234 | 0.9 | 3.5 | 0.00 | 0.00 | 0.00 | 37 | 1013.0 |
| 20260507110124 | 80 | 258 | 3.5 | 6.1 | 0.00 | 0.00 | 0.00 | 36 | 1013.2 |
| 20260507101623 | 78 | 0 | 1.7 | 6.1 | 0.00 | 0.00 | 0.00 | 42 | 1013.1 |
| 20260507094623 | 77 | 0 | 1.7 | 4.3 | 0.00 | 0.00 | 0.00 | 42 | 1013.2 |
| 20260507093138 | 75 | 20 | 1.7 | 5.2 | 0.00 | 0.00 | 0.00 | 43 | 1013.3 |
| 20260507084621 | 74 | 20 | 5.2 | 5.2 | 0.00 | 0.00 | 0.00 | 45 | 1013.3 |
| 20260507081621 | 71 | 0 | 1.7 | 4.3 | 0.00 | 0.00 | 0.00 | 51 | 1013.5 |
| 20260507074621 | 70 | 0 | 1.7 | 3.5 | 0.00 | 0.00 | 0.00 | 55 | 1013.2 |
| 20260507071620 | 67 | 0 | 1.7 | 4.3 | 0.00 | 0.00 | 0.00 | 59 | 1013.5 |
| 20260507070121 | 66 | 327 | 0.0 | 2.6 | 0.00 | 0.00 | 0.00 | 59 | 1013.7 |
| 20260507061618 | 64 | 341 | 1.7 | 3.5 | 0.00 | 0.00 | 0.00 | 62 | 1013.7 |
| 20260507054619 | 61 | 283 | 0.0 | 3.5 | 0.00 | 0.00 | 0.00 | 69 | 1013.7 |
| 20260507051619 | 58 | 254 | 1.7 | 2.6 | 0.00 | 0.00 | 0.00 | 74 | 1013.6 |
| 20260507044617 | 55 | 307 | 0.0 | 2.6 | 0.00 | 0.00 | 0.00 | 79 | 1013.3 |
| 20260507041617 | 53 | 296 | 1.7 | 3.5 | 0.00 | 0.00 | 0.00 | 80 | 1013.1 |
| 20260507034616 | 52 | 254 | 1.7 | 3.5 | 0.00 | 0.00 | 0.00 | 83 | 1013.0 |
| 20260507031616 | 52 | 264 | 0.9 | 5.2 | 0.00 | 0.00 | 0.00 | 81 | 1012.9 |
| 20260507030116 | 53 | 316 | 3.5 | 5.2 | 0.00 | 0.00 | 0.00 | 79 | 1012.6 |
| 20260507023116 | 53 | 314 | 2.6 | 4.3 | 0.00 | 0.00 | 0.00 | 80 | 1012.3 |
| 20260507014615 | 54 | 261 | 0.9 | 1.7 | 0.00 | 0.00 | 0.00 | 79 | 1012.2 |
| 20260507011615 | 54 | 195 | 0.0 | 3.5 | 0.00 | 0.00 | 0.00 | 77 | 1012.0 |
| 20260507004615 | 55 | 314 | 2.6 | 4.3 | 0.00 | 0.00 | 0.00 | 76 | 1012.0 |
| 20260507001613 | 54 | 317 | 1.7 | 3.5 | 0.00 | 0.00 | 0.00 | 77 | 1011.9 |
| 20260506234613 | 57 | 289 | 0.9 | 4.3 | 0.00 | 0.00 | 0.00 | 72 | 1012.1 |
| 20260506231612 | 58 | 336 | 1.7 | 3.5 | 0.00 | 0.00 | 0.00 | 70 | 1012.2 |
| 20260506224612 | 56 | 213 | 0.9 | 4.3 | 0.00 | 0.00 | 0.00 | 73 | 1012.3 |
| 20260506221611 | 60 | 59 | 3.5 | 4.3 | 0.00 | 0.00 | 0.00 | 66 | 1012.5 |
| 20260506214611 | 59 | 344 | 2.6 | 4.3 | 0.00 | 0.00 | 0.00 | 68 | 1012.6 |
| 20260506211611 | 60 | 79 | 0.0 | 2.6 | 0.00 | 0.00 | 0.00 | 67 | 1012.3 |
| 20260506204610 | 61 | 45 | 2.6 | 3.5 | 0.00 | 0.00 | 0.00 | 62 | 1012.4 |
| 20260506201610 | 62 | 76 | 0.9 | 5.2 | 0.00 | 0.00 | 0.00 | 59 | 1012.6 |
| 20260506194609 | 64 | 66 | 2.6 | 3.5 | 0.00 | 0.00 | 0.00 | 54 | 1012.4 |
| 20260506191609 | 65 | 130 | 3.5 | 4.3 | 0.00 | 0.00 | 0.00 | 54 | 1012.0 |
| 20260506184621 | 66 | 30 | 3.5 | 4.3 | 0.00 | 0.00 | 0.00 | 53 | 1011.4 |
| 20260506181612 | 73 | 223 | 6.1 | 9.6 | 0.00 | 0.00 | 0.00 | 38 | 1010.6 |
| 20260506181607 | 69 | 14 | 2.6 | 8.7 | 0.00 | 0.00 | 0.00 | 45 | 1011.0 |
| 20260506171606 | 72 | 216 | 1.7 | 14.8 | 0.00 | 0.00 | 0.00 | 41 | 1010.5 |
| 20260506164606 | 75 | 213 | 13.0 | 19.1 | 0.00 | 0.00 | 0.00 | 38 | 1010.3 |